Regional Weather Roundup
Issued by NWS

Home | Current Version | Previous Version | Text Only | Print | Product List | Glossary Off
Versions: 1 2 3 4 5 6 7 8 9 10 11 12 13 14 15 16 17 18 19 20 21 22 23 24 25 26 27 28 29 30 31 32 33 34 35 36 37 38 39 40 41 42 43 44 45 46 47 48 49 50

000
ASUS43 KBIS 300202
RWRND

NORTH DAKOTA REGIONAL WEATHER ROUNDUP
NATIONAL WEATHER SERVICE BISMARCK ND
900 PM CDT SAT AUG 29 2015

NOTE: "FAIR" INDICATES FEW OR NO CLOUDS BELOW 12,000 FEET WITH NO
SIGNIFICANT WEATHER AND/OR OBSTRUCTIONS TO VISIBILITY.


NDZ001>003-009>011-017-300300-
NORTHWEST NORTH DAKOTA

CITY           SKY/WX    TMP DP  RH WIND       PRES   REMARKS
WILLISTON      CLOUDY    82  53  36 NE8       29.75F HAZE
MINOT          MOCLDY    75  58  55 NE3       29.77S HAZE
MINOT AFB      MOCLDY    73  59  60 S6        29.76S
$$

NDZ018>021-031>035-040>046-300300-
SOUTHWEST NORTH DAKOTA

CITY           SKY/WX    TMP DP  RH WIND       PRES   REMARKS
BISMARCK       MOCLDY    76  62  62 SE8       29.82S
DICKINSON      MOCLDY    76  47  35 S6        29.82S
GARRISON         N/A     76  61  59 S7        29.79S
HETTINGER ARPT PTCLDY    79  54  41 SE8       29.87F
$$

NDZ004>008-012>016-024-026-027-054-300300-
NORTHEAST NORTH DAKOTA

CITY           SKY/WX    TMP DP  RH WIND       PRES   REMARKS
GRAND FORKS    PTCLDY    73  68  84 S9        29.82S
GRND FRKS AFB  FAIR      71  68  88 S9        29.82F
DEVILS LAKE    PTCLDY    73  64  73 S10       29.81S
$$

NDZ022-023-025-028>030-036>039-047>053-300300-
SOUTHEAST NORTH DAKOTA

CITY           SKY/WX    TMP DP  RH WIND       PRES   REMARKS
FARGO          MOCLDY    75  66  73 S15       29.87R
JAMESTOWN      PTCLDY    75  69  81 S10       29.86R
$$



USA.gov is the U.S. government's official web portal to all federal, state and local government web resources and services.